When you browse on this site, cookies collect data to enhance your experience and personalize the content and advertising you see.
Visit our Privacy Policy to learn more. By continuing to use the site, you agree to this use of cookies and data.
  • En España
  • Lista de países
  • Para 7 días
  • Temperatura del agua
  • El tiempo en el mapa
  • Informadores
  • user-avatar
    Iniciar sesión

    Tiempo cada hora Wiesbaden

    Hoy, 14 Diciembre, Sábado

    Tiempo Temperatura Precipitaciones Viento Presión Humedad
    00:00 +3°C° 0 mm 5 mps 728 mmHg 84%
    01:00 +3°C° 0 mm 4 mps 728 mmHg 85%
    02:00 +2°C° 0.2 mm 5 mps 727 mmHg 87%
    03:00 +2°C° 0.2 mm 5 mps 726 mmHg 88%
    04:00 +2°C° 0.2 mm 5 mps 725 mmHg 90%
    05:00 +3°C° 1.1 mm 5 mps 725 mmHg 89%
    06:00 +5°C° 1.1 mm 5 mps 724 mmHg 88%
    07:00 +6°C° 1.1 mm 5 mps 724 mmHg 87%
    08:00 +5°C° 0.2 mm 6 mps 726 mmHg 84%
    09:00 +5°C° 0.2 mm 7 mps 727 mmHg 80%
    10:00 +4°C° 0.2 mm 7 mps 729 mmHg 77%
    11:00 +5°C° 0.1 mm 8 mps 731 mmHg 73%
    12:00 +5°C° 0.1 mm 8 mps 732 mmHg 68%
    13:00 +5°C° 0.1 mm 8 mps 734 mmHg 64%
    14:00 +5°C° 0.1 mm 7 mps 734 mmHg 69%
    15:00 +5°C° 0.1 mm 6 mps 734 mmHg 73%
    16:00 +5°C° 0.1 mm 5 mps 735 mmHg 78%
    17:00 +6°C° 0.3 mm 5 mps 735 mmHg 78%
    18:00 +6°C° 0.3 mm 5 mps 736 mmHg 79%
    19:00 +5°C° 0.3 mm 6 mps 736 mmHg 79%
    20:00 +6°C° 0 mm 5 mps 737 mmHg 79%
    21:00 +5°C° 0 mm 5 mps 737 mmHg 80%
    22:00 +5°C° 0 mm 4 mps 738 mmHg 80%
    23:00 +5°C° 0 mm 4 mps 738 mmHg 82%

    Mañana, 15 Diciembre, Domingo

    Tiempo Temperatura Precipitaciones Viento Presión Humedad
    00:00 +4°C° 0 mm 3 mps 737 mmHg 85%
    01:00 +5°C° 0 mm 2 mps 737 mmHg 87%
    02:00 +5°C° 0.5 mm 3 mps 736 mmHg 90%
    03:00 +5°C° 0.5 mm 3 mps 736 mmHg 92%
    04:00 +7°C° 0.5 mm 3 mps 735 mmHg 95%
    05:00 +7°C° 0.8 mm 4 mps 735 mmHg 91%
    06:00 +8°C° 0.8 mm 5 mps 735 mmHg 87%
    07:00 +9°C° 0.8 mm 6 mps 735 mmHg 84%
    08:00 +8°C° 0.5 mm 6 mps 736 mmHg 84%
    09:00 +8°C° 0.5 mm 6 mps 737 mmHg 84%
    10:00 +8°C° 0.5 mm 6 mps 738 mmHg 83%
    11:00 +8°C° 0.1 mm 5 mps 739 mmHg 76%
    12:00 +8°C° 0.1 mm 5 mps 739 mmHg 68%
    13:00 +8°C° 0.1 mm 5 mps 740 mmHg 60%
    14:00 +7°C° 0 mm 4 mps 740 mmHg 64%
    15:00 +8°C° 0 mm 3 mps 741 mmHg 68%
    16:00 +7°C° 0 mm 2 mps 742 mmHg 72%
    17:00 +7°C° 0 mm 2 mps 742 mmHg 76%
    18:00 +7°C° 0 mm 2 mps 742 mmHg 79%
    19:00 +7°C° 0 mm 2 mps 742 mmHg 83%
    20:00 +7°C° 0.3 mm 2 mps 742 mmHg 86%
    21:00 +7°C° 0.3 mm 2 mps 742 mmHg 89%
    22:00 +7°C° 0.3 mm 2 mps 742 mmHg 91%
    23:00 +7°C° 0 mm 2 mps 742 mmHg 93%

    Pasado mañana, 16 Diciembre, Lunes

    Tiempo Temperatura Precipitaciones Viento Presión Humedad
    00:00 +7°C° 0 mm 2 mps 742 mmHg 94%
    01:00 +8°C° 0 mm 2 mps 742 mmHg 95%
    02:00 +8°C° 0.4 mm 2 mps 742 mmHg 96%
    03:00 +8°C° 0.4 mm 2 mps 742 mmHg 96%
    04:00 +8°C° 0.4 mm 2 mps 742 mmHg 97%
    05:00 +8°C° 0.7 mm 2 mps 742 mmHg 97%
    06:00 +8°C° 0.7 mm 2 mps 742 mmHg 96%
    07:00 +8°C° 0.7 mm 2 mps 742 mmHg 96%
    08:00 +8°C° 0.2 mm 2 mps 742 mmHg 93%
    09:00 +8°C° 0.2 mm 2 mps 742 mmHg 90%
    10:00 +9°C° 0.2 mm 2 mps 742 mmHg 87%
    11:00 +9°C° 0 mm 2 mps 741 mmHg 83%
    12:00 +10°C° 0 mm 2 mps 741 mmHg 79%
    13:00 +12°C° 0 mm 2 mps 741 mmHg 76%
    14:00 +10°C° 0 mm 2 mps 740 mmHg 77%
    15:00 +10°C° 0 mm 2 mps 740 mmHg 78%
    16:00 +10°C° 0 mm 1 mps 740 mmHg 80%
    17:00 +10°C° 0 mm 1 mps 740 mmHg 79%
    18:00 +10°C° 0 mm 1 mps 739 mmHg 79%
    19:00 +8°C° 0 mm 2 mps 739 mmHg 78%
    20:00 +9°C° 0 mm 1 mps 739 mmHg 79%
    21:00 +8°C° 0 mm 1 mps 739 mmHg 79%
    22:00 +8°C° 0 mm 1 mps 739 mmHg 80%
    23:00 +8°C° 0 mm 1 mps 739 mmHg 81%

    17 Diciembre, Martes

    Tiempo Temperatura Precipitaciones Viento Presión Humedad
    00:00 +7°C° 0 mm 1 mps 739 mmHg 81%
    01:00 +7°C° 0 mm 1 mps 738 mmHg 82%
    02:00 +7°C° 0 mm 1 mps 739 mmHg 82%
    03:00 +7°C° 0 mm 1 mps 739 mmHg 82%
    04:00 +7°C° 0 mm 1 mps 739 mmHg 82%
    05:00 +7°C° 0 mm 1 mps 740 mmHg 80%
    06:00 +8°C° 0 mm 1 mps 740 mmHg 79%
    07:00 +8°C° 0 mm 1 mps 740 mmHg 78%
    08:00 +8°C° 0 mm 1 mps 740 mmHg 78%
    09:00 +8°C° 0 mm 1 mps 740 mmHg 79%
    10:00 +8°C° 0 mm 1 mps 741 mmHg 79%
    11:00 +9°C° 0 mm 1 mps 741 mmHg 77%
    12:00 +9°C° 0 mm 1 mps 740 mmHg 75%
    13:00 +10°C° 0 mm 1 mps 740 mmHg 73%
    14:00 +10°C° 0 mm 1 mps 740 mmHg 74%
    15:00 +9°C° 0 mm 1 mps 741 mmHg 76%
    16:00 +9°C° 0 mm 1 mps 741 mmHg 77%
    17:00 +8°C° 0 mm 2 mps 741 mmHg 79%
    18:00 +8°C° 0 mm 2 mps 741 mmHg 80%
    19:00 +8°C° 0 mm 2 mps 741 mmHg 81%
    20:00 +9°C° 0 mm 1 mps 742 mmHg 81%
    21:00 +9°C° 0 mm 1 mps 742 mmHg 82%
    22:00 +9°C° 0 mm 1 mps 742 mmHg 82%
    23:00 +9°C° 0 mm 1 mps 742 mmHg 82%

    18 Diciembre, Miércoles

    Tiempo Temperatura Precipitaciones Viento Presión Humedad
    00:00 +9°C° 0 mm 1 mps 742 mmHg 82%
    01:00 +9°C° 0 mm 1 mps 743 mmHg 82%
    02:00 +9°C° 0 mm 1 mps 743 mmHg 83%
    03:00 +9°C° 0 mm 1 mps 744 mmHg 84%
    04:00 +9°C° 0 mm 1 mps 744 mmHg 86%
    05:00 +9°C° 0 mm 1 mps 744 mmHg 87%
    06:00 +9°C° 0 mm 1 mps 744 mmHg 89%
    07:00 +8°C° 0 mm 1 mps 745 mmHg 91%
    08:00 +8°C° 0 mm 1 mps 745 mmHg 91%
    09:00 +9°C° 0 mm 1 mps 745 mmHg 91%
    10:00 +9°C° 0 mm 1 mps 746 mmHg 92%
    11:00 +9°C° 0 mm 1 mps 746 mmHg 88%
    12:00 +9°C° 0 mm 0 mps 746 mmHg 85%
    13:00 +9°C° 0 mm 0 mps 746 mmHg 81%
    14:00 +9°C° 0 mm 0 mps 746 mmHg 84%
    15:00 +9°C° 0 mm 0 mps 746 mmHg 86%
    16:00 +9°C° 0 mm 1 mps 745 mmHg 88%
    17:00 +9°C° 0.6 mm 1 mps 745 mmHg 91%
    18:00 +9°C° 0.6 mm 1 mps 745 mmHg 93%
    19:00 +9°C° 0.6 mm 1 mps 745 mmHg 95%
    20:00 +9°C° 0.5 mm 1 mps 745 mmHg 96%
    21:00 +9°C° 0.5 mm 1 mps 745 mmHg 96%
    22:00 +9°C° 0.5 mm 1 mps 745 mmHg 97%
    23:00 +8°C° 0.1 mm 1 mps 745 mmHg 96%

    19 Diciembre, Jueves

    Tiempo Temperatura Precipitaciones Viento Presión Humedad
    00:00 +8°C° 0.1 mm 1 mps 744 mmHg 96%
    01:00 +8°C° 0.1 mm 1 mps 744 mmHg 95%
    02:00 +8°C° 0 mm 1 mps 743 mmHg 95%
    03:00 +7°C° 0 mm 1 mps 743 mmHg 95%
    04:00 +7°C° 0 mm 1 mps 743 mmHg 94%
    05:00 +7°C° 0 mm 1 mps 742 mmHg 94%
    06:00 +7°C° 0 mm 1 mps 742 mmHg 94%
    07:00 +6°C° 0 mm 1 mps 742 mmHg 94%
    08:00 +6°C° 0 mm 1 mps 742 mmHg 93%
    09:00 +5°C° 0 mm 2 mps 741 mmHg 91%
    10:00 +6°C° 0 mm 2 mps 741 mmHg 90%
    11:00 +6°C° 0 mm 2 mps 741 mmHg 86%
    12:00 +7°C° 0 mm 2 mps 740 mmHg 83%
    13:00 +8°C° 0 mm 2 mps 740 mmHg 79%
    14:00 +7°C° 0 mm 2 mps 739 mmHg 81%
    15:00 +7°C° 0 mm 2 mps 739 mmHg 82%
    16:00 +7°C° 0 mm 2 mps 739 mmHg 83%
    17:00 +7°C° 0 mm 2 mps 738 mmHg 85%
    18:00 +6°C° 0 mm 2 mps 738 mmHg 87%
    19:00 +6°C° 0 mm 2 mps 738 mmHg 89%
    20:00 +6°C° 0 mm 2 mps 738 mmHg 90%
    21:00 +5°C° 0 mm 2 mps 737 mmHg 90%
    22:00 +5°C° 0 mm 2 mps 737 mmHg 91%
    23:00 +6°C° 0 mm 1 mps 737 mmHg 92%
    Mostrar más